Other Public Products
Issued by NWS Charleston, SC

Home | Current Version | Previous Version | Text Only | Print | Product List | Glossary On
Versions: 1 2 3 4 5 6 7 8 9 10 11 12 13 14 15 16 17 18 19 20 21 22 23 24 25 26 27 28 29 30 31 32 33 34 35 36 37 38 39 40 41 42 43 44 45 46 47 48 49 50
000
FPUS82 KCHS 241726
OPUCHS

TEST...KCHS/KSAV Gateway Observations...TEST
National Weather Service Charleston SC
1200 PM EST FRI FEB 24 2017

NOTE: "fair" indicates few or no clouds below 12,000 feet with no
significant weather and/or obstructions to visibility.

SCZ050-WAZ558-NCZ071-TXZ119-213-PAZ071-DCZ001-FLZ074-172-MI076-
NYZ176-178-MAZ016-IL014-TNZ027-NJZ106-GAZ044-MD014-241800-
...Gateway Observations for Charleston International...

CITY           SKY/WX    TMP DP  RH WIND       PRES   REMARKS
Chas Airport   MOSUNNY   79  60  52 NE8       29.88F
Seattle        CLOUDY    37  28  70 SE6       30.16R WCI  32
Charlotte      MOSUNNY   72  54  53 W6        29.92F
Dallas DFW     MOSUNNY   55  35  47 NW18G25   29.88R
Dallas Love    MOSUNNY   54  36  50 NW16      29.88R
Philladelphia  MOSUNNY   72  54  53 SW14      29.92F
Wash National  PTSUNNY   74  56  53 S15       29.90F
Baltimore      PTSUNNY   73  54  51 SW8       29.89F
Miami          MOSUNNY   76  65  68 W8        29.80F
Detroit        PTSUNNY   62  54  74 S9        29.57F
Newark         MOSUNNY   72  54  53 S13       29.91F
Laguardia      MOSUNNY   67  53  61 S10       29.93F
J F K          MOSUNNY   59  51  75 S10       29.96F
Boston Logan   PTSUNNY   67  54  63 S12       29.91F
Ft. Lauderdale MOSUNNY   77  68  73 NW7       29.79F
Chicago O`Hare LGT RAIN  39  36  89 N12       29.47S FOG     WCI  32
Chicago Midway CLOUDY    40  37  89 N8        29.46F FOG     WCI  34
Houston Bush   PTSUNNY   75  63  66 SW9       29.79R
Houston Hobby  PTSUNNY   74  64  71 S7        29.79R
Nashville      PTSUNNY   77  54  44 S23G33    29.74F
Atlanta        MOSUNNY   71  57  61 S9        29.90F

$$

GAZ044-118-TXZ119-213-NCZ071-DCZ001-MDZ014-506-PAZ021-071-NJZ106-
NYZ176-178-MAZ106-OHZ011-021-055-MIZ076-KYZ091-ILZ014-INZ047-
MNZ060-ONZ431-241800-
...Gateway Observations for Savannah International...

CITY           SKY/WX    TMP DP  RH WIND       PRES   REMARKS
Savannah Arpt  MOSUNNY   78  60  53 E10       29.88F
Atlanta        MOSUNNY   71  57  61 S9        29.90F
Charlotte      MOSUNNY   72  54  53 W6        29.92F
Dallas DFW     MOSUNNY   55  35  47 NW18G25   29.88R
Houston Bush   PTSUNNY   75  63  66 SW9       29.79R
Wash National  PTSUNNY   74  56  53 S15       29.90F
Wash Dulles    MOSUNNY   74  53  48 S14G26    29.88F
Baltimore      PTSUNNY   73  54  51 SW8       29.89F
Philadelphia   MOSUNNY   72  54  53 SW14      29.92F
Newark         MOSUNNY   72  54  53 S13       29.91F
Laguardia      MOSUNNY   67  53  61 S10       29.93F
J F K          MOSUNNY   59  51  75 S10       29.96F
Boston         PTSUNNY   67  54  63 S12       29.91F
Pittsburg      PTSUNNY   72  51  47 SW21G28   29.76F
Akron          PTSUNNY   71  53  52 SW23G32   29.71F
Cleveland      MOSUNNY   72  53  51 S17G31    29.66F
Cincinnati     PTSUNNY   72  55  55 SW17G37   29.65F
Columbus       PTSUNNY   71  55  55 SW25G36   29.68F
Detroit        PTSUNNY   62  54  74 S9        29.57F
Chicago O`Hare LGT RAIN  39  36  89 N12       29.47S FOG     WCI  32
Minneapolis    CLOUDY    26  16  65 N16       29.86S WCI  14
Indianapolis   CLOUDY    72  51  47 SW26G39   29.54F
Toronto Canada CLOUDY    39  37  93 E10       29.72F WCI  32

$$




USA.gov is the U.S. government's official web portal to all federal, state and local government web resources and services.